Weather Roundup
Issued by NWS

Home | Current Version | Previous Version | Graphics & Text | Print | Product List | Glossary Off
Versions: 1 2 3 4 5 6 7 8 9 10 11 12 13 14 15 16 17 18 19 20 21 22 23 24 25 26 27 28 29 30 31 32 33 34 35 36 37 38 39 40 41 42 43 44 45 46 47 48 49 50

000
NZUS93 KARX 191010
HRRWXR

CURRENT HOURLY OBSERVATIONS ACROSS
MUCH OF THE UPPER MISSISSIPPI VALLEY
NATIONAL WEATHER SERVICE LA CROSSE WI
400 AM CST FRI DEC 19 2014


...SOUTHEAST MINNESOTA...


CITY           SKY/WX    TMP DP  RH WIND       PRES   REMARKS
ROCHESTER      CLOUDY    22  17  81 S7        30.24F WCI  13
ROCHESTER/MAYO CLOUDY    22  17  81 CALM      30.26S
WINONA         CLOUDY    25  19  80 CALM      30.30S
AUSTIN         CLOUDY    23  19  86 S5        30.25R WCI  17
ALBERT LEA     CLOUDY    25  21  86 S3        30.24S
DODGE CENTER   CLOUDY    23  21  93 S6        30.23F WCI  16
PRESTON        CLOUDY    22  18  84 S3        30.26S
OWATONNA       CLOUDY    23  19  86 S7        30.24S WCI  15
FARIBAULT      CLOUDY    23  19  86 SE3       30.25S
$$

...ELSEWHERE IN MINNESOTA...


CITY           SKY/WX    TMP DP  RH WIND       PRES   REMARKS
MINNEAPOLIS    CLOUDY    21  16  81 SE5       30.26F WCI  15
INTNL FALLS    CLOUDY    21  18  88 S5        30.18S WCI  15
DULUTH         FLURRIES  20  17  88 SW8       30.20F WCI  10
RED WING       CLOUDY    23  18  80 SE3       30.27S
REDWOOD FALLS  CLOUDY    25  22  88 SE9       30.20F WCI  15
MANKATO        CLOUDY    25  18  74 SE8       30.23F WCI  16
WORTHINGTON    CLOUDY    27  25  93 S8        30.17F WCI  18
FAIRMONT       CLOUDY    27  19  74 S8        30.21F WCI  18
$$

...SOUTHWEST WISCONSIN...


CITY           SKY/WX    TMP DP  RH WIND       PRES   REMARKS
LA CROSSE      CLOUDY    25  17  72 SW3       30.30S
PRAIRIE DU CHI CLOUDY    26  18  72 CALM      30.30S
BOSCOBEL       CLOUDY    26  19  74 CALM      30.30F
LONE ROCK      CLOUDY    28  19  69 NW3       30.30S
PLATTEVILLE    CLOUDY    24  20  82 CALM      30.29S
FORT MC COY    CLOUDY    24  20  83 CALM      30.29F
CAMP DOUGLAS   CLOUDY    23  23 100 SW6       30.27S WCI  16
VIROQUA        CLOUDY    23  19  87 CALM      30.25F
WIS DELLS      CLOUDY    25  20  82 CALM      30.27S
$$

...ELSEWHERE IN WISCONSIN...


CITY           SKY/WX    TMP DP  RH WIND       PRES   REMARKS
MILWAUKEE      CLOUDY    28  19  69 NW7       30.27S WCI  21
MADISON        CLOUDY    26  20  77 CALM      30.27S
GREEN BAY      PTCLDY    18  15  88 CALM      30.28S
EAU CLAIRE     CLOUDY    24  18  77 W5        30.26F WCI  18
BLACK RVR FLS  CLOUDY    25  20  82 CALM      30.28S
MEDFORD        CLOUDY    21  19  92 CALM      30.23S
WAUSAU         PTCLDY    16  13  88 N3        30.24S
WIS RAPIDS     CLOUDY    22  19  89 CALM      30.28S
MARSHFIELD     CLOUDY    24  20  84 CALM      30.25S
RICE LAKE      CLOUDY    23  19  85 S6        30.27F WCI  16
$$

...NORTHEAST IOWA...


CITY           SKY/WX    TMP DP  RH WIND       PRES   REMARKS
DECORAH        CLOUDY    23  19  86 CALM      30.26S
MASON CITY     CLOUDY    24  20  84 S6        30.26F WCI  17
CHARLES CITY   CLOUDY    23  19  86 CALM      30.26F
OELWEIN        CLOUDY    23  19  86 CALM      30.28S
$$

...ELSEWHERE IN IOWA...


CITY           SKY/WX    TMP DP  RH WIND       PRES   REMARKS
DES MOINES     FLURRIES  29  24  82 SE3       30.26F
IOWA CITY      CLOUDY    26  20  77 CALM      30.31F
FORT DODGE     CLOUDY    27  21  80 S3        30.24S
$$

...NORTHERN ILLINOIS...


CITY           SKY/WX    TMP DP  RH WIND       PRES   REMARKS
CHICAGO-OHARE  CLOUDY    28  23  81 NW6       30.26S WCI  22
CHICAGO-MIDWAY FLURRIES  30  23  75 W6        30.27F WCI  24
MOLINE         CLEAR     16  12  84 CALM      30.30F
ROCKFORD       CLOUDY    27  20  75 NW8       30.30S WCI  19
PEORIA         CLEAR     20  15  81 CALM      30.29F
$$

NOTE: "FAIR" INDICATES FEW OR NO CLOUDS BELOW 12,000 FEET WITH NO
SIGNIFICANT WEATHER AND/OR OBSTRUCTIONS TO VISIBILITY. WIND
SPEEDS ARE IN MILES-PER-HOUR.



USA.gov is the U.S. government's official web portal to all federal, state and local government web resources and services.